Regional Weather Roundup
Issued by NWS Sioux Falls, SD

Home | Current Version | Previous Version | Text Only | Print | Product List | Glossary Off
Versions: 1 2 3 4 5 6 7 8 9 10 11 12 13 14 15 16 17 18 19 20 21 22 23 24 25 26 27 28 29 30 31 32 33 34 35 36 37 38 39 40 41 42 43 44 45 46 47 48 49 50

000
ASUS43 KFSD 292202
RWRFSD

WEATHER ROUNDUP FOR SE SOUTH DAKOTA/SW MINNESOTA/NW IOWA
NATIONAL WEATHER SERVICE SIOUX FALLS SD
500 PM CDT SUN MAR 29 2015

NOTE: "FAIR" INDICATES FEW OR NO CLOUDS BELOW 12,000 FEET WITH NO
SIGNIFICANT WEATHER AND OR OBSTRUCTIONS TO VISIBILITY.


SDZ038>040-050-052>070-292300-
SOUTHEAST SOUTH DAKOTA

CITY           SKY/WX    TMP DP  RH WIND       PRES   REMARKS
CHAMBERLAIN    NOT AVBL
HURON          SUNNY     60  17  18 NW28G35   30.01F
MADISON        FAIR      55  21  26 NW29G38   30.00S
MITCHELL       SUNNY     61  17  18 NW28G33   30.04S
SIOUX FALLS    SUNNY     59  22  24 NW24G33   30.00R
WINNER         FAIR      63  18  17 NW18      30.08F
YANKTON        SUNNY     61  21  21 NW26G36   30.04F
$$

MNZ071-072-080-081-089-090-097-098-292300-
SOUTHWEST MINNESOTA

CITY           SKY/WX    TMP DP  RH WIND       PRES   REMARKS
FAIRMONT       SUNNY     57  27  30 NW32G41   29.89R
JACKSON        MOSUNNY   57  21  24 NW33G40   29.92R
LUVERNE        SUNNY     59  21  23 N24G32    29.98S
MARSHALL       MOSUNNY   57  25  28 NW31G41   29.94R
MONTEVIDEO     MOSUNNY   57  28  33 N23G36    29.92R
PIPESTONE      SUNNY     55  19  24 NW26G39   29.97R
REDWOOD FALLS  MOSUNNY   54  29  38 NW25G39   29.90R
TRACY          SUNNY     57  26  29 NW26G37   29.94R
WINDOM         SUNNY     57  21  24 NW30G41   29.91S
WORTHINGTON    MOSUNNY  N/A N/A N/A NW30G38   29.95R
$$

IAZ001>003-012>014-020>022-031-032-NEZ013-014-SDZ071-292300-
NORTHWEST IOWA

CITY           SKY/WX    TMP DP  RH WIND       PRES   REMARKS
DENISON        SUNNY     61  25  25 NW24G33   29.98R
ESTHERVILLE    SUNNY     57  23  26 NW35G45   29.92R
SIOUX CITY     SUNNY     63  21  20 N22G36    30.01R
SPENCER        SUNNY     59  22  24 NW28G41   29.95R
$$

ABBREVIATIONS USED IN REMARKS
   TC - TEMPERATURE IN CELSIUS
  WCI - WIND CHILL INDEX
   HX - HEAT INDEX
  VSB - VISIBILITY




USA.gov is the U.S. government's official web portal to all federal, state and local government web resources and services.